Regional Weather Roundup
Issued by NWS

Home | Current Version | Previous Version | Text Only | Print | Product List | Glossary Off
Versions: 1 2 3 4 5 6 7 8 9 10 11 12 13 14 15 16 17 18 19 20 21 22 23 24 25 26 27 28 29 30 31 32 33 34 35 36 37 38 39 40 41 42 43 44 45 46 47 48 49 50

000
ASUS45 KSLC 041310
RWRUT

UTAH REGIONAL WEATHER ROUNDUP
NATIONAL WEATHER SERVICE SALT LAKE CITY UT
600 AM MST WED MAR 04 2015

UTZ001>011-023>025-041400-

NORTHERN UTAH

CITY           SKY/WX    TMP DP  RH WIND       PRES   REMARKS
BRIGHAM CITY   CLEAR     23  19  84 CALM      30.10R
HILL AFB       CLOUDY    25  19  77 SE3       30.07R
LOGAN          CLEAR     21  15  78 CALM      30.07R
OGDEN          MOCLDY    24  19  81 CALM      30.08R
PROVO AIRPORT  MOCLDY    25  19  80 CALM      30.09R
SALT LAKE CITY PTCLDY    27  22  81 SE6       30.09R WCI  20
VERNAL         CLEAR     15   8  73 N3        30.02R
WENDOVER       PTCLDY    28   9  43 E5        30.12R WCI  23
HEBER CITY     CLEAR      9   5  85 CALM      30.05R
WEST JORDAN    CLEAR     19  14  79 CALM      30.09R

$$

UTZ012>022-026-027-041400-

SOUTHERN/CENTRAL UTAH

CITY           SKY/WX    TMP DP  RH WIND       PRES   REMARKS
BLANDING       CLEAR     24  15  68 N12       30.00R WCI  12
BRYCE CANYON   PTCLDY     4   0  83 NE15      29.98R WCI -14
CEDAR CITY     PTCLDY     7   4  87 CALM      30.03R
DELTA          CLEAR     19  17  92 NE3       30.10R
HANKSVILLE     CLEAR     23  19  86 CALM      30.05R
MILFORD        CLEAR     15  10  80 SW5       30.07R WCI   8
MOAB/CYNLANDS  PTCLDY    22  16  78 CALM      30.00R
PRICE          CLEAR     22   8  55 NW5       29.99R WCI  16
ST GEORGE      SUNNY     34  25  69 S5        30.08R WCI  30
KANAB          PTCLDY    27  14  59 N9        30.06R WCI  17

$$

REGIONAL REPORTS     COLORADO/ARIZONA

CITY           SKY/WX    TMP DP  RH WIND       PRES   REMARKS
CRAIG, CO      PTCLDY     2  -2  83 SE5       30.01R WCI  -8
GRAND JUNCTION CLOUDY    25  13  60 NE9G21    30.00R WCI  15
RIFLE          PTCLDY    22  12  65 NW3       30.01R
MONTROSE       CLOUDY    26  21  81 NW12      29.97R WCI  16
CORTEZ         CLOUDY    26  20  77 VRB3      29.93R
PAGE, AZ       CLEAR     32  15  49 CALM      30.00R
GRAND CANYON   MOCLDY    24  22  91 CALM      29.96R
KINGMAN        CLEAR     33  27  78 NE10      30.01R WCI  25
FLAGSTAFF      NOT AVBL

$$

REGIONAL REPORTS    NEVADA/IDAHO/WYOMING

CITY           SKY/WX    TMP DP  RH WIND       PRES   REMARKS
LAS VEGAS, NV  CLEAR     44  16  32 NW18      30.03R
ELY            PTCLDY     4   1  88 S9        30.08R WCI -10
ELKO           CLEAR     14  10  84 CALM      30.13R
POCATELLO, ID  CLEAR     12  10  92 W6        30.13R WCI   3
BURLEY         CLEAR     19  10  68 W3        30.12R
EVANSTON, WY   CLOUDY    14  11  87 SW7       29.97R WCI   4
ROCK SPRINGS   LGT SNOW   0  -3  87 NE3       29.99R FOG

$$



USA.gov is the U.S. government's official web portal to all federal, state and local government web resources and services.